Regional Weather Roundup
Issued by NWS Charleston, SC

Current Version | Previous Version | Graphics & Text | Print | Product List | Glossary On
Versions: 1 2 3 4 5 6 7 8 9 10 11 12 13 14 15 16 17 18 19 20 21 22 23 24 25 26 27 28 29 30 31 32 33 34 35 36 37 38 39 40 41 42 43 44 45 46 47 48 49 50
066 ASUS42 KCHS 272128 RWRCHS REGIONAL WEATHER ROUNDUP NATIONAL WEATHER SERVICE CHARLESTON SC 500 PM EDT WED JUL 27 2016 NOTE: "FAIR" INDICATES FEW OR NO CLOUDS BELOW 12,000 FEET WITH NO SIGNIFICANT WEATHER AND/OR OBSTRUCTIONS TO VISIBILITY. NOT ALL STATIONS ARE QUALITY CONTROLLED. USE DATA WITH CAUTION... ESPECIALLY DEWPOINT OBSERVATIONS. SCZ027-030-031-034>040-042>050-272200- ...SOUTHEAST SOUTH CAROLINA... CITY SKY/WX TMP DP RH WIND PRES REMARKS N CHARLESTON MOSUNNY 95 71 45 W8 29.97F HX 102 WATERFRONT PRK N/A 89 78 70 S14 29.96F HX 103 MOUNT PLEASANT FAIR 91 79 66 S14 29.97S HX 107 JOHNS ISLAND FAIR 91 79 66 S14 29.98F HX 107 PINOPOLIS N/A 93 75 55 SW7 29.88F HX 104 MONCKS CORNER MOCLDY 91 68 46 SW9 29.96F HX 95 SUMMERVILLE FAIR 97 72 44 SW8 29.97F HX 105 BEAUFORT MCAS MOSUNNY 96 70 42 W7 29.98F HX 102 BEAUFORT ARPT FAIR 95 72 46 SW8 29.97F HX 103 HILTON HEAD IS MOSUNNY 99 79 53 S12 30.00F HX 117 WALTERBORO PTCLDY 97 68 38 SW8 29.98S HX 101 ALLENDALE FAIR 95 72 46 SW9 29.97S HX 103 ...SOUTHERN MIDLANDS AND PEE DEE... CITY SKY/WX TMP DP RH WIND PRES REMARKS GEORGETOWN FAIR 90 77 66 S9 29.97S HX 102 KINGSTREE FAIR 97 70 41 S7 29.95F HX 103 ORANGEBURG MOSUNNY 96 72 45 SW12 29.97F HX 104 BARNWELL NOT AVBL AIKEN FAIR 93 70 46 S8G18 30.01S HX 99 MANNING FAIR 95 72 46 SW9G16 29.95F HX 103 COLUMBIA MOSUNNY 96 70 42 SW6 29.94F HX 102 SUMTER SUNNY 97 73 46 S13 29.93F HX 106 FLORENCE SUNNY 96 71 44 SW12 29.95F HX 103 MYRTLE BEACH MOSUNNY 91 73 55 S15 29.96F HX 100 N MYRTLE BEACH SUNNY 90 77 65 S15 29.95F HX 103 $$ GAZ063-065-086>088-099>101-113>116-118-119-134>141-150-272200- ...SOUTHEAST GEORGIA... CITY SKY/WX TMP DP RH WIND PRES REMARKS SAVANNAH ARPT MOSUNNY 96 69 41 SW10 29.99F HX 102 HUNTER AAF MOSUNNY 95 76 52 SW8 29.97F HX 107 FORT STEWART MOSUNNY 96 70 43 S6 29.96F HX 102 STATESBORO MOSUNNY 96 73 47 W6 29.98F HX 105 SYLVANIA NOT AVBL CLAXTON FAIR 94 72 48 SW3 29.98F HX 102 ...CSRA...CENTRAL AND FAR SOUTHEAST GEORGIA... CITY SKY/WX TMP DP RH WIND PRES REMARKS THOMSON NOT AVBL AUGUSTA-BUSH MOSUNNY 99 68 36 SW9 29.95F HX 104 AUGUSTA-DANIEL MOSUNNY 98 68 37 SW12G18 29.98F HX 103 SWAINSBORO FAIR 95 68 41 W10G17 30.00S HX 99 VIDALIA PTSUNNY 97 68 38 W6 30.00S HX 101 EASTMAN FAIR 94 53 24 W8 30.03F HX 92 HAZLEHURST FAIR 97 72 45 CALM 30.00F HX 106 ALMA MOSUNNY 95 70 44 SW8 30.01F HX 101 WAYCROSS SUNNY 100 73 42 W15 30.01F HX 110 JESUP FAIR 97 73 46 W8 30.00F HX 107 BAXLEY FAIR 95 75 52 W9 30.00F HX 107 BRUNSWICK MOSUNNY 97 73 46 W7 30.01F HX 107 SAINT SIMONS PTSUNNY 91 76 61 S10 30.01F HX 103 $$ SCZ027-028-034-036>038-045-046-048>050-GAZ119-141-272200- ...LAKE AND SUPPLEMENTAL COASTAL OBSERVATIONS... STATION/POSITION TIME TEMP WIND PRES WAVE SWELL AIR SEA DIR/SP/G HT/PER HT/PER/DIR (UTC) (F) (DEG/KT/KT) (MB) (FT/S) (FT/S/D) WINYAH BAY 2045 90 200/ 12 1014.0F LAKE MURRAY 2100 94 220/ 9/ 12 1013.2F ACE BASIN NERRS 2000 94 220/ 2 1016.0F FORT PULASKI 2100 89 87 170/ 7/ 13 1016.0F SAPELO ISLAND 2100 96 200/ 7 1016.0F $$ ANZ835-935-AMZ111-154-330-350-352-354-370-450-454-472-272200- ...C-MAN AND BUOY OBSERVATIONS... STATION/POSITION TIME TEMP WIND PRES WAVE SWELL AIR SEA DIR/SP/G HT/PER HT/PER/DIR (UTC) (F) (DEG/KT/KT) (MB) (FT/S) (FT/S/D) BUOY 41004 2050 85 87 220/ 14/ 16 1015.0F 3/ 5 2/150/ 7 BUOY 41008 2050 86 87 170/ 12/ 14 1016.3F FOLLY BEACH CMAN 2100 87 200/ 15/ 17 1015.5F CAPERS NEARSHORE 2008 85 85 220/ 16/ 21 1015.6F FRIPP NEARSHORE 2108 86 88 210/ 16/ 19 1014.9F STATION/POSITION TIME TEMP WIND PRES WAVE SWELL AIR SEA DIR/SP/G HT/PER HT/PER/DIR (UTC) (F) (DEG/KT/KT) (MB) (FT/S) (FT/S/D) 5E ST. MARYS GA 2101 87 N/A 2/ 9 FRYING PAN BUOY 2100 86 85 230/ 17/ 19 1014.4F BUOY 41025 2050 85 85 240/ 10/ 12 1013.3F 3/ 6 2/220/ 6 CAPE LOOKOUT NC 2100 87 210/ 10/ 13 1013.2F BUOY 41002 2050 85 85 250/ 10/ 12 1016.5F 4/ 6 3/250/ 6 BUOY 41010 2020 86 89 340/ 4/ 6 1018.4F ST AUGUSTINE FL 2100 85 86 110/ 12/ 13 1017.9F $$

USA.gov is the U.S. government's official web portal to all federal, state and local government web resources and services.